Wind_Speed
22 20 16 15 18 11 7 8 3 13 23 25 33 39 58 71 80 79 66 67 75 70 47 50 42 46 52 49 48 42 40 46 49 53 45 36 29 40 40 41 31 34 28 30 40 27 35 31 26 31 44 42 38 36
24 20 16 10 13 11 7 6 5 7 16 29 20 33 40 59 74 60 66 61 56 67 59 47 54 51 52 48 47 48 45 42 43 36 46 35 26 30 40 35 37 22 35 31 32 46 39 20 14 23 24 28 27 29
21 17 13 8 8 9 7 7 8 7 6 12 10 20 37 36 33 43 58 48 46 42 44 36 42 44 43 47 51 47 38 42 36 34 23 19 13 28 22 27 26 29 28 41 36 46 44 41 41 39 37 40 38 40
19 14 9 8 6 6 9 10 10 13 15 16 13 8 12 17 21 30 31 33 34 35 30 25 28 31 32 31 29 33 38 34 31 23 26 16 11 16 18 22 26 31 30 33 38 39 40 38 42 41 44 44 43 39
20 13 7 8 6 6 8 14 14 14 15 18 16 14 14 12 10 9 11 21 26 27 17 21 20 20 26 31 31 33 29 26 22 22 20 18 20 19 21 21 28 30 29 26 36 35 33 34 22 33 45 44 48 55
21 9 5 9 9 9 9 13 15 16 16 16 19 18 18 17 15 16 17 15 14 15 12 9 8 6 10 16 20 21 22 25 27 29 30 30 30 25 16 26 30 20 15 18 27 39 40 55 53 53 44 40 39 42
26 9 6 8 11 12 11 13 14 14 16 16 16 17 18 15 13 12 5 10 15 15 16 12 8 9 8 9 10 12 15 18 20 21 24 24 23 22 27 48 46 40 38 36 36 37 45 45 47 38 28 30 32 36
28 20 6 7 9 12 11 15 18 18 16 17 17 16 15 16 19 12 9 11 16 16 15 9 11 11 11 12 12 11 11 11 12 13 15 12 14 17 25 34 28 24 24 23 21 20 24 34 33 32 31 34 32 33
25 27 23 14 12 14 14 14 15 18 19 19 18 17 17 15 16 18 16 14 13 15 9 9 12 10 13 12 11 10 10 9 10 14 15 12 13 17 27 20 17 15 17 16 17 21 23 27 27 26 28 26 31 31
22 22 23 22 19 16 15 14 16 19 19 19 20 23 20 15 14 13 10 5 4 13 8 11 7 7 8 11 11 7 7 7 4 7 5 11 19 15 9 12 15 17 19 21 23 23 25 25 26 30 24 32 27 27
15 19 22 21 20 19 17 16 17 19 20 22 25 20 20 17 14 9 7 6 5 4 10 12 5 8 7 8 12 6 2 2 1 2 4 4 5 7 14 11 15 18 17 18 20 22 23 25 26 26 27 28 28 28
13 13 16 17 20 19 18 18 20 18 20 20 20 22 26 15 5 5 9 8 6 6 8 15 14 12 11 12 7 7 4 4 4 7 4 4 6 12 15 16 18 18 17 20 22 23 24 24 22 22 23 24 24 26
10 12 12 17 17 17 16 17 19 15 15 18 23 14 14 4 4 4 6 6 7 9 13 18 22 19 15 8 5 5 6 7 5 6 5 7 8 16 16 19 17 18 19 20 22 24 23 21 19 20 20 21 20 17
9 9 11 13 14 15 13 12 12 17 19 15 8 6 5 4 4 4 9 11 11 7 13 16 19 15 15 9 6 5 6 5 4 6 12 9 17 20 19 14 17 19 19 22 23 19 14 12 11 10 10 6 6 6
9 10 10 12 15 16 13 13 15 20 12 5 4 2 4 6 8 9 11 13 13 10 14 13 14 8 11 7 7 7 5 6 7 9 9 9 11 14 18 20 18 19 19 16 10 8 7 6 5 5 6 8 9 8
8 10 11 10 11 14 16 14 14 14 5 3 1 2 5 6 6 8 7 9 10 13 15 12 10 6 8 6 8 8 6 7 6 10 13 14 15 18 18 16 16 13 10 5 4 3 3 3 5 6 7 8 9 11
12 12 12 12 12 12 13 12 10 9 4 2 3 4 4 6 6 7 7 8 9 14 14 9 7 6 6 6 7 9 15 14 15 15 15 18 19 18 14 11 9 7 7 5 5 6 7 8 8 9 12 14 17 19
14 17 14 13 12 13 14 13 11 9 8 11 8 9 10 8 9 9 10 11 12 15 17 12 9 11 8 9 11 14 15 19 18 19 19 17 16 16 10 7 7 7 7 7 8 9 9 10 12 15 17 19 21 19
14 10 12 12 12 12 11 12 14 6 9 13 15 12 12 11 11 10 10 11 14 16 16 17 11 14 17 19 18 18 18 17 16 16 16 17 12 9 7 7 8 8 10 10 10 10 12 15 18 19 19 19 22 23
18 19 17 16 14 12 10 6 9 12 6 10 13 12 13 13 15 14 14 15 14 15 18 22 24 18 15 17 18 20 22 21 15 13 12 8 7 6 7 8 9 10 11 12 13 15 17 18 18 18 20 20 22 26
19 19 19 19 17 16 11 6 7 5 7 12 10 9 12 14 16 18 19 19 22 26 28 27 23 19 20 19 13 11 12 12 12 11 8 8 8 9 11 11 12 13 14 15 16 17 17 17 18 19 19 21 24 25
24 20 18 19 20 19 19 18 8 9 11 10 12 14 13 18 17 17 17 20 27 33 32 28 21 17 16 17 16 11 8 8 9 10 8 8 8 10 11 12 12 12 12 13 13 14 15 16 18 20 22 24 25 26
18 19 20 18 16 14 14 19 17 18 13 11 14 15 14 13 14 13 19 22 22 19 22 24 19 18 18 20 18 15 12 11 11 10 9 10 10 11 10 11 10 11 11 11 12 14 16 17 20 22 24 25 27 28
19 20 21 12 14 12 16 16 16 13 15 14 13 11 9 10 15 18 21 20 17 14 14 18 20 22 21 21 21 19 15 15 15 13 12 12 12 12 11 10 10 11 11 12 13 15 17 18 21 23 24 26 27 27
19 15 11 14 15 16 19 20 18 12 16 19 15 13 9 11 14 15 16 11 12 19 16 17 20 20 18 17 21 20 18 18 18 15 14 14 13 12 12 11 10 11 12 14 15 17 18 19 22 24 25 26 27 25
17 16 12 11 18 20 18 17 18 22 15 13 11 11 17 16 12 8 5 5 9 11 17 18 19 20 21 21 22 22 18 20 19 17 16 16 14 13 13 11 11 12 13 14 15 16 18 21 23 24 25 25 24 21
14 11 20 21 15 14 13 11 11 10 17 13 13 18 14 8 7 7 12 8 11 11 13 13 15 17 18 19 22 19 18 21 21 18 17 16 15 14 13 12 12 12 13 14 15 17 19 21 23 24 23 22 20 17
16 15 19 17 23 17 16 14 17 16 15 13 14 13 7 7 8 12 6 5 8 12 14 16 18 22 23 22 21 19 16 18 17 15 15 15 15 13 12 12 13 13 13 14 15 17 19 21 22 22 21 19 16 12
17 16 15 18 20 21 20 17 15 14 12 12 18 16 14 17 12 10 8 6 6 7 10 13 16 18 20 22 20 18 20 20 18 16 15 14 13 12 12 12 12 13 13 14 16 17 19 20 20 19 18 15 12 8
19 16 18 18 21 21 20 17 16 17 17 16 16 16 14 11 12 14 14 14 13 10 9 11 12 13 14 15 16 16 17 17 16 15 13 11 11 12 12 12 12 12 12 13 15 16 18 18 17 16 14 12 8 5
19 15 19 19 19 19 23 21 20 19 17 18 22 21 20 19 16 15 14 13 13 13 11 9 9 10 12 14 14 14 13 14 13 12 12 11 11 11 11 11 10 10 11 12 13 15 15 14 13 12 10 8 6 3
21 23 21 19 16 16 16 21 23 21 19 18 16 16 16 16 17 17 16 14 12 12 12 11 10 11 13 15 15 15 15 14 13 12 11 10 10 10 10 9 9 9 10 11 12 12 12 11 10 9 8 7 5 3
20 19 21 19 17 18 18 18 20 17 18 20 21 19 18 17 16 15 11 11 12 11 11 12 12 14 14 14 13 13 12 11 11 11 10 9 9 9 9 8 7 8 8 9 10 10 10 9 8 8 7 7 6 4
Wind_Direction
311 304 303 309 310 307 276 264 222 178 190 183 172 176 182 188 191 195 199 208 210 210 216 215 217 219 220 225 222 226 227 227 227 225 225 223 225 220 233 232 218 208 200 214 225 229 255 272 264 241 272 276 279 285
309 299 291 292 294 293 253 249 215 193 167 195 180 187 183 191 200 195 192 197 202 211 216 218 219 225 227 229 233 239 233 232 225 215 216 220 211 213 221 229 223 233 213 210 216 228 245 244 246 270 264 264 269 266
316 298 279 262 266 268 228 203 200 201 198 190 192 182 190 188 189 196 195 188 192 202 204 213 213 216 218 222 217 221 223 217 219 216 209 201 205 219 227 233 231 231 240 239 241 256 263 261 265 271 271 269 273 265
332 308 264 225 231 230 210 186 178 182 202 199 192 191 195 204 190 188 199 203 206 198 192 197 204 200 196 193 204 214 227 227 230 222 215 221 210 211 211 229 237 242 239 241 248 253 258 262 263 269 267 277 271 271
340 317 244 187 186 194 190 182 171 166 177 194 194 190 193 207 201 199 209 200 200 199 193 208 222 223 230 235 238 244 244 237 235 240 242 256 271 282 284 273 259 259 263 261 260 260 258 261 279 282 291 297 297 293
359 333 215 165 165 163 167 175 169 158 156 164 179 176 187 193 191 188 178 193 216 227 210 179 193 214 247 255 263 263 259 262 262 266 272 277 284 284 285 278 278 267 254 245 264 279 287 289 288 292 295 286 284 284
16 45 154 166 160 158 151 160 170 162 155 152 160 174 179 181 175 174 170 170 173 160 158 150 165 187 197 204 209 223 235 242 249 255 255 256 260 267 269 274 278 284 284 278 269 260 271 275 283 287 285 277 284 293
29 44 112 150 156 157 154 154 162 169 162 157 164 178 176 163 162 147 110 133 167 154 143 137 136 157 169 183 182 177 201 221 237 247 262 268 265 261 262 276 291 289 292 287 279 280 281 267 282 275 279 286 285 271
38 53 66 98 126 146 147 148 153 158 162 165 169 160 157 162 163 151 112 103 147 157 139 134 134 160 170 186 194 193 211 230 252 262 273 273 260 243 289 297 291 298 305 299 289 285 279 276 273 274 280 283 289 285
46 57 72 87 96 106 120 131 140 150 154 151 148 135 150 152 147 150 164 193 156 183 157 127 162 165 148 174 179 176 186 204 260 292 263 245 267 304 303 293 282 280 293 293 286 281 286 288 281 274 284 281 282 276
55 65 77 81 89 100 111 124 138 149 149 153 151 148 148 143 147 136 133 165 184 179 205 178 208 186 174 179 159 148 146 154 296 241 234 269 292 320 281 256 288 296 301 300 297 295 289 290 291 290 293 293 293 288
72 74 89 89 85 90 96 110 124 137 149 158 157 137 153 146 122 127 144 148 153 175 184 182 175 177 170 166 155 176 168 194 244 241 240 253 296 266 261 270 279 291 297 297 298 298 297 295 291 288 284 282 283 285
78 83 107 107 99 93 85 102 122 129 149 143 123 123 137 136 117 129 148 162 176 186 170 175 182 199 188 184 190 187 198 210 220 228 240 254 236 249 274 290 288 297 300 299 299 300 300 294 289 286 283 282 285 291
111 106 113 133 124 127 130 126 115 136 157 138 132 110 132 144 140 158 172 168 171 184 166 176 191 188 201 200 178 188 207 222 230 228 248 259 242 260 280 290 301 295 295 300 302 302 303 305 309 314 306 283 273 277
139 132 130 130 135 136 136 133 143 150 131 105 128 135 164 171 173 174 175 182 199 203 201 182 163 168 159 176 185 197 199 220 224 244 257 243 252 270 288 295 291 298 302 302 303 313 329 332 328 294 274 282 300 308
178 158 153 154 151 149 148 151 156 165 115 116 151 176 199 189 182 190 203 196 205 185 170 167 171 175 179 184 184 193 206 217 248 237 252 261 277 296 304 292 295 293 284 271 311 278 283 309 316 318 319 316 310 306
193 192 180 175 173 180 175 172 167 182 187 208 222 200 197 198 189 198 200 189 181 186 180 179 187 180 169 195 208 218 232 237 255 263 267 270 284 295 301 293 287 262 233 258 258 265 281 293 298 302 303 303 301 301
207 204 198 193 192 191 200 206 212 221 229 241 242 232 233 220 212 207 205 197 195 198 199 199 204 203 204 214 228 248 247 251 259 272 275 275 282 294 292 278 254 228 227 253 263 273 280 289 295 297 299 300 299 303
226 212 208 208 208 212 221 230 220 237 231 235 235 236 236 230 228 228 228 221 216 216 217 221 226 231 234 247 244 250 258 264 261 270 273 284 278 269 263 246 246 249 256 264 270 278 284 291 299 302 303 304 303 306
222 220 221 221 219 219 219 222 225 219 242 251 232 231 241 251 253 253 252 251 246 233 222 228 238 238 249 248 246 250 259 267 269 266 275 249 236 245 255 260 262 262 268 276 282 286 291 295 298 300 302 305 306 308
222 222 223 227 227 224 213 228 218 223 225 243 243 233 246 248 264 263 255 251 240 240 244 250 254 255 250 242 245 264 265 255 247 247 230 228 237 254 266 268 265 266 271 276 281 286 291 296 299 301 305 308 310 310
221 215 219 221 225 228 235 223 218 248 241 244 242 248 245 260 263 264 259 247 242 242 241 242 246 247 241 229 226 240 245 235 229 227 230 245 258 269 271 269 268 272 276 279 283 286 290 299 303 308 312 313 314 314
217 216 220 221 219 224 243 227 217 226 238 240 241 244 251 251 256 261 237 252 260 261 242 229 221 228 233 217 225 230 242 239 237 238 250 256 265 278 277 268 269 276 280 283 289 297 303 306 309 312 314 315 317 317
212 213 214 218 218 223 229 226 229 217 223 231 246 256 249 242 250 253 254 252 255 258 243 223 218 223 223 222 225 226 240 248 249 253 261 270 274 283 282 275 278 283 289 294 299 302 305 308 310 314 317 317 317 318
201 209 210 218 216 218 228 231 228 214 220 222 222 233 242 240 252 261 272 282 243 222 230 221 215 220 220 221 225 228 236 251 252 257 266 270 277 279 281 282 287 291 293 298 302 305 307 310 314 317 316 317 318 320
205 207 204 208 210 219 225 227 232 228 223 219 218 220 227 246 257 258 283 267 223 220 221 223 223 228 231 232 234 235 234 242 248 257 266 275 280 277 280 282 288 292 295 297 301 304 309 314 316 315 317 319 320 321
219 212 214 209 207 212 210 220 226 220 204 215 215 230 234 236 250 250 258 254 231 226 225 222 215 218 222 226 233 231 228 237 249 259 269 270 269 273 274 280 287 287 291 297 301 306 311 314 315 316 320 320 321 322
221 214 227 218 213 215 214 214 212 205 214 215 212 218 212 211 215 247 274 254 245 235 231 226 228 229 233 240 247 248 241 243 252 256 255 255 260 265 271 277 282 287 292 297 302 308 313 315 317 321 323 323 323 323
214 217 223 222 211 212 220 221 222 224 217 213 213 228 238 235 245 250 253 264 268 241 226 225 228 233 239 243 245 246 236 238 243 246 247 249 252 262 269 274 279 286 291 297 304 311 315 318 322 323 324 326 326 323
221 219 228 229 223 213 220 223 227 226 228 227 232 236 246 254 249 253 257 258 260 261 247 233 228 228 226 228 228 222 221 226 231 234 240 247 256 259 264 269 275 281 289 299 309 314 317 321 323 326 329 330 330 326
222 219 222 232 241 236 224 232 237 237 239 239 239 243 251 256 254 257 261 260 257 250 247 246 234 224 217 212 207 203 206 212 215 219 228 239 250 257 259 265 269 277 292 304 311 316 320 324 328 331 335 338 340 339
215 217 218 223 229 238 234 227 234 236 231 233 237 240 245 249 254 253 253 255 252 242 237 238 227 213 207 203 199 198 198 204 212 223 232 241 249 254 254 252 264 283 298 308 315 319 325 331 336 341 346 349 350 345
227 225 222 223 223 237 233 230 233 237 237 237 240 242 242 244 248 254 247 244 240 235 229 224 217 204 195 191 194 203 210 216 220 224 233 245 253 249 241 249 268 289 303 313 319 326 333 339 343 348 355 358 357 344
Height
2809 2805 2803 2800 2793 2792 2791 2791 2793 2795 2800 2805 2809 2816 2824 2834 2847 2858 2867 2881 2892 2901 2909 2916 2921 2932 2939 2946 2954 2961 2974 2975 2983 2984 2984 2982 2979 2980 2986 2991 2992 2995 2997 2998 3005 3008 2985 2992 2995 2999 2993 2996 2998 2997
2804 2800 2798 2798 2794 2792 2793 2791 2794 2797 2800 2809 2814 2819 2828 2837 2846 2854 2867 2875 2886 2898 2906 2910 2918 2925 2931 2939 2948 2951 2956 2959 2964 2964 2963 2964 2964 2966 2970 2974 2984 2981 2980 2985 2987 2976 2982 2987 2989 2992 2989 2983 2986 2985
2797 2794 2793 2795 2794 2792 2794 2794 2796 2799 2802 2809 2812 2819 2827 2836 2845 2857 2866 2873 2884 2889 2897 2904 2910 2916 2920 2927 2933 2939 2938 2945 2946 2948 2950 2950 2952 2958 2960 2965 2971 2973 2976 2971 2978 2971 2979 2984 2981 2977 2975 2974 2973 2973
2792 2789 2789 2790 2792 2792 2794 2796 2797 2803 2808 2812 2816 2819 2825 2832 2843 2853 2861 2868 2876 2884 2889 2897 2903 2907 2914 2918 2923 2928 2933 2937 2939 2939 2941 2943 2946 2950 2951 2954 2961 2964 2962 2965 2965 2965 2966 2968 2967 2966 2966 2963 2962 2962
2788 2784 2785 2789 2792 2793 2796 2800 2802 2804 2810 2815 2819 2824 2832 2836 2843 2849 2854 2862 2871 2880 2883 2889 2896 2903 2908 2911 2916 2921 2925 2930 2933 2937 2937 2939 2942 2947 2946 2949 2951 2956 2956 2958 2957 2958 2955 2951 2956 2958 2956 2956 2952 2951
2787 2781 2782 2787 2791 2794 2796 2799 2805 2808 2812 2817 2823 2828 2833 2840 2847 2851 2858 2862 2864 2869 2880 2890 2895 2898 2902 2906 2909 2914 2919 2924 2928 2931 2932 2932 2935 2941 2943 2943 2947 2951 2951 2951 2950 2952 2948 2945 2947 2947 2946 2944 2942 2942
2789 2783 2784 2787 2791 2795 2798 2801 2806 2810 2814 2819 2825 2829 2835 2841 2847 2854 2859 2861 2865 2873 2882 2887 2892 2896 2900 2904 2907 2911 2916 2920 2924 2926 2927 2929 2932 2935 2934 2930 2936 2940 2942 2940 2941 2941 2937 2937 2934 2936 2937 2935 2934 2931
2796 2790 2788 2790 2794 2798 2801 2804 2809 2814 2818 2823 2827 2831 2836 2843 2851 2857 2859 2862 2867 2873 2880 2886 2888 2894 2899 2901 2905 2910 2915 2918 2921 2923 2925 2926 2927 2928 2924 2927 2931 2929 2928 2928 2929 2930 2929 2929 2928 2928 2928 2926 2924 2923
2804 2800 2796 2796 2798 2801 2805 2809 2813 2817 2821 2825 2829 2835 2841 2847 2852 2857 2862 2865 2869 2875 2878 2882 2886 2892 2897 2900 2905 2909 2913 2917 2920 2918 2919 2921 2920 2918 2921 2922 2922 2921 2921 2921 2921 2922 2923 2922 2921 2920 2919 2918 2918 2916
2813 2811 2808 2808 2809 2810 2812 2815 2819 2823 2826 2830 2834 2840 2846 2850 2855 2860 2864 2867 2870 2872 2875 2881 2885 2890 2896 2899 2903 2909 2910 2914 2913 2914 2914 2915 2913 2914 2914 2915 2917 2916 2915 2913 2913 2915 2915 2914 2913 2911 2910 2909 2908 2905
2821 2819 2818 2817 2817 2818 2820 2822 2825 2828 2832 2835 2838 2842 2848 2852 2857 2860 2862 2865 2868 2874 2878 2883 2888 2890 2894 2897 2901 2905 2906 2911 2913 2914 2912 2912 2913 2913 2911 2912 2913 2911 2909 2908 2908 2910 2909 2907 2906 2905 2902 2901 2900 2898
2827 2826 2826 2826 2826 2826 2827 2828 2831 2834 2837 2840 2844 2847 2851 2856 2860 2863 2865 2870 2873 2878 2878 2882 2888 2891 2894 2898 2900 2904 2906 2910 2913 2912 2911 2909 2911 2909 2908 2909 2909 2908 2906 2904 2905 2904 2902 2900 2898 2897 2895 2893 2891 2889
2833 2832 2831 2832 2833 2833 2834 2836 2838 2841 2843 2847 2849 2852 2856 2859 2860 2862 2865 2869 2871 2871 2875 2879 2884 2887 2891 2897 2899 2903 2906 2908 2909 2909 2907 2907 2908 2903 2905 2905 2904 2902 2900 2900 2899 2898 2896 2893 2891 2890 2888 2886 2883 2883
2837 2837 2836 2836 2838 2839 2840 2842 2844 2846 2849 2852 2855 2856 2858 2860 2862 2864 2866 2868 2870 2872 2874 2879 2883 2887 2890 2894 2898 2902 2905 2906 2905 2904 2902 2903 2903 2902 2901 2900 2899 2896 2895 2894 2893 2891 2888 2889 2886 2885 2886 2881 2882 2883
2841 2841 2841 2841 2841 2842 2844 2846 2848 2850 2852 2855 2857 2858 2859 2860 2861 2863 2864 2866 2869 2872 2875 2879 2883 2887 2890 2893 2896 2900 2901 2899 2897 2896 2898 2898 2901 2899 2897 2894 2893 2890 2888 2888 2888 2888 2885 2886 2885 2886 2885 2883 2882 2882
2843 2844 2844 2845 2845 2846 2847 2849 2851 2853 2855 2856 2858 2858 2858 2859 2861 2863 2864 2867 2869 2871 2875 2879 2882 2885 2887 2890 2893 2893 2894 2893 2893 2893 2894 2897 2896 2894 2891 2889 2887 2887 2885 2886 2887 2886 2886 2886 2885 2884 2883 2882 2881 2881
2842 2844 2845 2846 2847 2849 2850 2851 2853 2854 2856 2857 2857 2858 2859 2860 2861 2863 2864 2866 2868 2871 2874 2877 2878 2881 2884 2885 2886 2887 2886 2889 2889 2890 2891 2891 2890 2888 2885 2884 2883 2882 2883 2885 2886 2886 2885 2884 2883 2883 2882 2881 2879 2878
2840 2842 2844 2846 2848 2850 2851 2852 2854 2854 2855 2856 2857 2858 2858 2860 2861 2863 2864 2866 2868 2870 2873 2875 2877 2878 2879 2880 2882 2883 2883 2883 2885 2885 2885 2884 2883 2882 2880 2880 2881 2882 2883 2884 2884 2883 2882 2882 2881 2881 2879 2877 2874 2874
2839 2842 2843 2845 2847 2849 2851 2852 2853 2853 2853 2854 2855 2856 2857 2858 2860 2861 2863 2865 2866 2868 2870 2871 2872 2871 2874 2875 2876 2878 2877 2877 2878 2879 2879 2878 2877 2877 2878 2878 2879 2880 2880 2881 2881 2880 2880 2879 2878 2876 2875 2873 2870 2868
2834 2838 2840 2843 2845 2847 2848 2850 2850 2851 2852 2852 2853 2854 2855 2856 2857 2858 2859 2860 2862 2863 2864 2863 2864 2867 2868 2870 2870 2871 2872 2872 2873 2874 2874 2874 2875 2875 2876 2876 2877 2877 2877 2878 2878 2877 2876 2875 2874 2873 2870 2869 2866 2863
2831 2833 2836 2839 2842 2844 2846 2846 2847 2849 2849 2849 2850 2851 2852 2851 2851 2852 2854 2855 2855 2854 2855 2857 2861 2862 2863 2865 2866 2867 2867 2868 2869 2870 2871 2872 2873 2873 2874 2874 2874 2874 2875 2874 2874 2873 2872 2871 2870 2868 2866 2864 2862 2858
2824 2829 2832 2834 2837 2840 2840 2842 2845 2846 2846 2847 2847 2846 2847 2846 2847 2847 2847 2845 2844 2846 2849 2853 2855 2857 2859 2861 2863 2864 2865 2865 2866 2868 2869 2870 2871 2871 2871 2871 2871 2871 2870 2870 2870 2870 2869 2867 2866 2863 2861 2859 2856 2852
2823 2826 2828 2831 2834 2834 2835 2837 2839 2841 2842 2842 2843 2842 2842 2842 2842 2842 2840 2838 2838 2840 2842 2846 2850 2852 2853 2856 2858 2860 2861 2863 2864 2865 2867 2867 2868 2868 2868 2867 2867 2867 2867 2867 2867 2866 2864 2863 2861 2859 2856 2853 2850 2846
2818 2821 2824 2827 2828 2828 2828 2830 2832 2835 2837 2838 2837 2837 2838 2838 2837 2835 2832 2833 2833 2834 2835 2839 2843 2845 2848 2851 2853 2856 2858 2859 2860 2862 2863 2863 2864 2864 2864 2864 2864 2864 2864 2863 2863 2862 2860 2859 2857 2854 2851 2848 2845 2841
2816 2818 2820 2819 2820 2822 2823 2824 2827 2830 2830 2832 2835 2835 2834 2833 2832 2830 2826 2826 2827 2829 2831 2834 2837 2840 2843 2846 2849 2851 2854 2855 2855 2858 2859 2859 2860 2861 2860 2860 2860 2860 2860 2859 2859 2857 2856 2855 2853 2850 2847 2843 2840 2837
2809 2810 2811 2811 2813 2816 2817 2819 2821 2823 2826 2828 2829 2830 2829 2830 2829 2826 2824 2823 2824 2825 2828 2830 2833 2836 2839 2841 2843 2846 2850 2851 2852 2853 2854 2854 2856 2856 2856 2856 2856 2856 2856 2856 2855 2854 2852 2850 2848 2845 2842 2839 2836 2833
2801 2801 2803 2804 2808 2810 2813 2815 2818 2819 2821 2822 2824 2824 2826 2826 2823 2822 2820 2821 2822 2824 2826 2828 2830 2833 2835 2837 2838 2842 2845 2846 2847 2849 2850 2851 2852 2852 2853 2853 2853 2853 2852 2852 2851 2850 2849 2846 2844 2841 2838 2835 2832 2830
2794 2796 2798 2802 2804 2807 2809 2811 2813 2814 2816 2817 2819 2819 2819 2819 2820 2819 2820 2819 2820 2820 2822 2824 2826 2828 2830 2832 2835 2838 2841 2842 2844 2846 2846 2847 2847 2848 2849 2849 2849 2849 2849 2849 2848 2847 2845 2842 2840 2836 2834 2831 2829 2827
2790 2793 2795 2796 2800 2802 2804 2806 2807 2808 2810 2812 2813 2814 2814 2815 2817 2817 2818 2818 2818 2818 2819 2820 2822 2824 2826 2828 2830 2832 2834 2837 2839 2841 2842 2843 2844 2845 2845 2846 2846 2846 2846 2846 2845 2843 2841 2838 2835 2833 2831 2829 2827 2825
2786 2789 2791 2792 2794 2796 2799 2801 2803 2804 2806 2808 2809 2810 2811 2812 2813 2813 2814 2815 2816 2816 2816 2817 2818 2819 2821 2823 2825 2827 2829 2832 2834 2837 2838 2840 2841 2842 2842 2843 2843 2843 2843 2842 2841 2839 2837 2835 2833 2830 2828 2827 2825 2824
2783 2785 2787 2788 2788 2791 2793 2795 2798 2800 2801 2803 2804 2806 2807 2808 2809 2809 2810 2810 2811 2812 2813 2814 2814 2815 2817 2819 2822 2824 2827 2829 2832 2834 2835 2836 2837 2838 2839 2840 2840 2841 2840 2839 2838 2836 2834 2832 2830 2828 2826 2825 2824 2823
2776 2778 2781 2783 2786 2786 2789 2790 2792 2794 2796 2798 2799 2800 2802 2803 2803 2805 2806 2806 2807 2808 2810 2811 2812 2813 2815 2817 2820 2822 2825 2827 2829 2831 2832 2833 2834 2835 2836 2837 2837 2837 2837 2836 2835 2833 2831 2829 2828 2826 2825 2824 2823 2822
2772 2774 2776 2778 2780 2780 2782 2785 2786 2788 2790 2791 2793 2795 2796 2798 2799 2801 2801 2802 2804 2805 2807 2808 2810 2812 2813 2816 2819 2821 2824 2826 2827 2829 2830 2831 2832 2833 2834 2834 2835 2834 2834 2833 2832 2830 2829 2828 2826 2825 2824 2823 2822 2821